Butler, PA

7:07 AM EDT on October 23, 2019 (GMT -0400)
Butler County-Scholter

Weather History for KBTP - June, 2019

Change the Weather History Date:

Thursday, June 6, 2019

  Actual Average Record
Temperature  
Mean Temperature 68 °F -  
Max Temperature 73 °F 71 °F 89 °F (1971)
Min Temperature 61 °F 53 °F 34 °F (1978)
Cooling Degree Days 3    
Growing Degree Days 18 (Base 50)    
Moisture  
Dew Point 63 °F    
Average Humidity 91    
Maximum Humidity 100    
Minimum Humidity 66    
Precipitation  
Precipitation 0.06 in - - ()
Sea Level Pressure  
Sea Level Pressure 29.83 in    
Wind  
Wind Speed 2 mph (West)    
Max Wind Speed 8 mph    
Max Gust Speed -    
Visibility 6 miles    
Events Fog    
Averages and records for this station are not official NWS values.
T = Trace of Precipitation, MM = Missing Value Source: NWS Daily Summary

Daily Weather History Graph

Daily Weather History Graph

Search for Another Location

Airport or City:

Astronomy

Jun. 06, 2019 Rise Set
Actual Time 5:48 AM EDT 8:48 PM EDT
Civil Twilight 5:15 AM EDT 9:21 PM EDT
Nautical Twilight 4:34 AM EDT 10:03 PM EDT
Astronomical Twilight 3:45 AM EDT 10:52 PM EDT
Moon 8:55 AM EDT (6/6) No Moon Set
Length of Visible Light 16h 05m
Length of Day
14h 59m
Waxing Crescent, 13% of the Moon is Illuminated
Jun 6
Waxing Crescent
Jun 10
First Quarter
Jun 17
Full
Jun 25
Last Quarter
Jul 2
New

Hourly Weather History & Observations

Time (EDT) Temp. Dew Point Humidity Pressure Visibility Wind Dir Wind Speed Gust Speed Precip Events Conditions
12:12 AM 64.4 °F 64.4 °F 100% 29.78 in 5.0 mi SSW 3.5 mph - N/A   Scattered Clouds
12:31 AM 64.4 °F 64.4 °F 100% 29.78 in 1.5 mi SSW 3.5 mph - N/A   Scattered Clouds
12:33 AM 64.4 °F 64.4 °F 100% 29.78 in 0.8 mi SSW 3.5 mph - N/A   Mostly Cloudy
12:41 AM 64.4 °F 62.6 °F 94% 29.79 in 0.5 mi Calm Calm - N/A Fog Fog
12:56 AM 64.0 °F 64.0 °F 100% 29.79 in 0.8 mi Calm Calm - N/A   Overcast
1:06 AM 64.4 °F 64.4 °F 100% 29.78 in 1.2 mi Calm Calm - N/A   Overcast
1:25 AM 64.4 °F 64.4 °F 100% 29.78 in 2.5 mi Calm Calm - 0.01 in   Overcast
1:50 AM 64.4 °F 64.4 °F 100% 29.76 in 1.0 mi Calm Calm - 0.01 in   Overcast
1:56 AM 64.0 °F 64.0 °F 100% 29.77 in 0.5 mi Calm Calm - 0.01 in Fog Fog
2:16 AM 64.4 °F 62.6 °F 94% 29.76 in 0.5 mi Calm Calm - N/A Fog Fog
2:21 AM 64.4 °F 64.4 °F 100% 29.76 in 1.0 mi Calm Calm - N/A   Overcast
2:29 AM 64.4 °F 64.4 °F 100% 29.77 in 1.5 mi Calm Calm - N/A   Overcast
2:34 AM 64.4 °F 64.4 °F 100% 29.77 in 0.8 mi Calm Calm - N/A   Overcast
2:42 AM 64.4 °F 62.6 °F 94% 29.77 in 1.2 mi Calm Calm - N/A   Overcast
2:54 AM 64.4 °F 64.4 °F 100% 29.77 in 2.0 mi Calm Calm - 0.01 in   Overcast
2:56 AM 64.0 °F 64.0 °F 100% 29.77 in 2.5 mi Calm Calm - 0.01 in   Overcast
3:27 AM 64.4 °F 64.4 °F 100% 29.77 in 3.0 mi Calm Calm - 0.00 in   Overcast
3:35 AM 64.4 °F 64.4 °F 100% 29.77 in 2.5 mi Calm Calm - 0.00 in   Overcast
3:56 AM 64.9 °F 64.9 °F 100% 29.77 in 2.5 mi Calm Calm - 0.00 in   Overcast
4:14 AM 64.4 °F 64.4 °F 100% 29.77 in 3.0 mi Calm Calm - N/A   Overcast
4:34 AM 64.4 °F 64.4 °F 100% 29.76 in 5.0 mi West 4.6 mph - N/A   Mostly Cloudy
4:56 AM 64.0 °F 64.0 °F 100% 29.78 in 4.0 mi West 3.5 mph - 0.01 in   Mostly Cloudy
5:13 AM 64.4 °F 64.4 °F 100% 29.78 in 4.0 mi West 4.6 mph - N/A   Overcast
5:49 AM 64.4 °F 64.4 °F 100% 29.79 in 2.0 mi Variable 3.5 mph - N/A   Overcast
5:56 AM 64.0 °F 64.0 °F 100% 29.79 in 2.5 mi West 4.6 mph - N/A   Overcast
6:13 AM 64.4 °F 64.4 °F 100% 29.80 in 3.0 mi Calm Calm - N/A   Overcast
6:32 AM 64.4 °F 64.4 °F 100% 29.81 in 4.0 mi Calm Calm - N/A   Overcast
6:56 AM 64.9 °F 64.0 °F 97% 29.82 in 4.0 mi WNW 3.5 mph - 0.01 in   Overcast
7:56 AM 64.9 °F 63.0 °F 93% 29.84 in 8.0 mi Calm Calm - N/A   Overcast
8:28 AM 64.4 °F 64.4 °F 100% 29.85 in 10.0 mi Variable 3.5 mph - N/A   Overcast
8:56 AM 66.0 °F 64.0 °F 93% 29.86 in 10.0 mi Calm Calm - N/A   Overcast
9:56 AM 66.9 °F 64.0 °F 90% 29.88 in 10.0 mi Variable 3.5 mph - N/A   Overcast
10:34 AM 66.2 °F 62.6 °F 88% 29.89 in 10.0 mi Variable 6.9 mph - N/A   Overcast
10:56 AM 69.1 °F 63.0 °F 81% 29.89 in 10.0 mi WNW 8.1 mph - N/A   Mostly Cloudy
11:03 AM 66.2 °F 62.6 °F 88% 29.89 in 10.0 mi NW 8.1 mph - N/A   Mostly Cloudy
11:56 AM 68.0 °F 62.1 °F 81% 29.91 in 10.0 mi Variable 4.6 mph - 0.01 in   Overcast
12:07 PM 69.8 °F 60.8 °F 73% 29.91 in 10.0 mi NW 5.8 mph - N/A   Overcast
12:56 PM 70.0 °F 62.1 °F 76% 29.91 in 10.0 mi West 6.9 mph - N/A   Overcast
1:56 PM 70.0 °F 61.0 °F 73% 29.92 in 10.0 mi NW 5.8 mph - N/A   Overcast
2:39 PM 71.6 °F 60.8 °F 69% 29.91 in 10.0 mi Variable 6.9 mph - N/A   Scattered Clouds
2:56 PM 71.1 °F 61.0 °F 70% 29.91 in 10.0 mi NW 8.1 mph - N/A   Mostly Cloudy
3:56 PM 71.1 °F 62.1 °F 73% 29.91 in 10.0 mi Variable 5.8 mph - N/A   Overcast
4:40 PM 71.6 °F 60.8 °F 69% 29.91 in 10.0 mi WNW 8.1 mph - N/A   Scattered Clouds
4:56 PM 72.0 °F 61.0 °F 68% 29.90 in 10.0 mi Variable 4.6 mph - N/A   Partly Cloudy
5:56 PM 73.0 °F 61.0 °F 66% 29.90 in 10.0 mi Variable 3.5 mph - N/A   Mostly Cloudy
6:56 PM 72.0 °F 60.1 °F 66% 29.90 in 10.0 mi West 5.8 mph - N/A   Partly Cloudy
7:56 PM 70.0 °F 61.0 °F 73% 29.91 in 10.0 mi Calm Calm - 0.01 in   Clear
8:56 PM 66.0 °F 61.0 °F 84% 29.93 in 10.0 mi Calm Calm - N/A   Clear
9:56 PM 64.9 °F 60.1 °F 84% 29.94 in 10.0 mi Calm Calm - N/A   Clear
10:56 PM 63.0 °F 59.0 °F 87% 29.94 in 10.0 mi Calm Calm - N/A   Clear
11:56 PM 61.0 °F 59.0 °F 93% 29.95 in 10.0 mi Calm Calm - N/A   Clear